Weather History for Wittering, United Kingdom

Change the Weather History Date:

Thursday, January 17, 2013

  Actual Average Record
Temperature  
Mean Temperature 22 °F -  
Max Temperature 30 °F 43 °F 51 °F (2007)
Min Temperature 15 °F 34 °F 15 °F (2013)
Degree Days  
Heating Degree Days 42    
Moisture  
Dew Point 23 °F    
Average Humidity 94    
Maximum Humidity 100    
Minimum Humidity 86    
Precipitation  
Precipitation 0.01 in - - ()
Sea Level Pressure  
Sea Level Pressure 30.02 in    
Wind  
Wind Speed 1 mph ()    
Max Wind Speed 6 mph    
Max Gust Speed -    
Visibility 3.7 miles    
Events      
Averages and records for this station are not official NWS values.
T = Trace of Precipitation, MM = Missing Value Source: Averaged Metar Reports

Daily Weather History Graph

Daily Weather History Graph

Search for Another Location

Airport:

Trip Planner

Search our weather history database for the weather conditions in past years. The results will help you decide how hot, cold, wet, or windy it might be!

Date:

Astronomy

Jan. 17, 2013 Rise Set
Actual Time 8:03 AM GMT 4:20 PM GMT
Civil Twilight 7:24 AM GMT 5:00 PM GMT
Nautical Twilight 6:41 AM GMT 5:43 PM GMT
Astronomical Twilight 6:00 AM GMT 6:24 PM GMT
Moon 10:06 AM GMT 11:58 PM GMT
Length of Visible Light 9h 36m
Length of Day
8h 17m
Waxing Crescent, 35% of the Moon is Illuminated
Jan 17
Waxing Crescent
Jan 18
First Quarter
Jan 27
Full
Feb 3
Last Quarter
Feb 10
New

Hourly Weather History & Observations

Time (GMT) Temp. Windchill Dew Point Humidity Pressure Visibility Wind Dir Wind Speed Gust Speed Precip Events Conditions
12:50 AM 19.4 °F - 17.6 °F 93% 30.04 in 4.3 mi Calm Calm - N/A   Haze
1:50 AM 19.4 °F - 17.6 °F 93% 30.04 in 3.7 mi Calm Calm - N/A   Haze
2:50 AM 18 °F - 16 °F 88% 30.07 in 2 mi Calm Calm - -   Light Haze
2:50 AM 17.6 °F - 15.8 °F 93% 30.04 in 2.5 mi Calm Calm - N/A   Haze
3:50 AM 15.8 °F - 14.0 °F 93% 30.04 in 3.7 mi Calm Calm - N/A   Haze
4:50 AM 17.6 °F - 15.8 °F 93% 30.04 in 3.1 mi Calm Calm - N/A   Unknown
5:50 AM 16 °F - 14 °F 86% 30.08 in 3 mi Calm Calm - -   Light Haze
5:50 AM 15.8 °F - 14.0 °F 93% 30.04 in 3.1 mi Calm Calm - N/A   Haze
6:50 AM 19.4 °F - 17.6 °F 93% 30.04 in 3.7 mi Calm Calm - N/A   Haze
7:50 AM 17.6 °F - 15.8 °F 93% 30.04 in 3.7 mi Calm Calm - N/A   Haze
8:50 AM 17 °F - 15 °F 88% 30.10 in 4 mi Calm Calm - -   Light Haze
8:50 AM 17.6 °F - 15.8 °F 93% 30.06 in 3.7 mi Calm Calm - N/A   Haze
9:50 AM 21.2 °F - 19.4 °F 93% 30.06 in 3.7 mi Calm Calm - N/A   Partly Cloudy
10:50 AM 24.8 °F - 23.0 °F 93% 30.06 in 5.0 mi Calm Calm - N/A   Scattered Clouds
11:50 AM 26 °F - 25 °F 93% 30.09 in 5 mi Calm Calm - -   Light Haze
11:50 AM 26.6 °F - 24.8 °F 93% 30.06 in 5.0 mi Calm Calm - N/A   Haze
12:50 PM 26.6 °F - 24.8 °F 93% 30.04 in 5.6 mi Calm Calm - N/A   Haze
1:50 PM 28.4 °F - 26.6 °F 93% 30.04 in 4.3 mi SSE 1.2 mph - N/A   Mostly Cloudy
2:50 PM 29 °F - 28 °F 92% 30.05 in 4 mi SE 3.5 mph - -   Mist
2:50 PM 28.4 °F 24.6 °F 28.4 °F 100% 30.04 in 4.3 mi SE 3.5 mph - N/A   Overcast
3:50 PM 30.2 °F 26.7 °F 28.4 °F 93% 30.01 in 3.7 mi SE 3.5 mph - N/A   Overcast
4:50 PM 30.2 °F - 28.4 °F 93% 30.01 in 3.1 mi SE 2.3 mph - N/A   Overcast
5:50 PM 30.2 °F 26.7 °F 28.4 °F 93% 30.01 in 3.7 mi ESE 3.5 mph - N/A   Overcast
6:50 PM 30.2 °F 25.4 °F 30.2 °F 100% 29.98 in - ESE 4.6 mph - N/A   Overcast
7:50 PM 30.2 °F 25.4 °F 30.2 °F 100% 29.98 in 3.1 mi ESE 4.6 mph - N/A   Overcast
8:50 PM 30 °F - 29 °F 96% 30.00 in 2 mi ESE 4.6 mph - -   Mist
8:50 PM 30.2 °F 25.4 °F 30.2 °F 100% 29.98 in - ESE 4.6 mph - N/A   Overcast
9:50 PM 30.2 °F 25.4 °F 28.4 °F 93% 29.95 in - ESE 4.6 mph - N/A   Overcast
10:50 PM 30.2 °F 24.3 °F 28.4 °F 93% 29.92 in - ESE 5.8 mph - N/A   Mostly Cloudy
11:50 PM 29 °F - 29 °F 98% 29.92 in 3 mi ESE 5.8 mph - -   Mist
11:50 PM 30.2 °F 24.3 °F 28.4 °F 93% 29.89 in - ESE 5.8 mph - N/A   Mostly Cloudy